Showing default

RUBIN 4/SL-8, 27940

Orbit data source: Space-Track

RUBIN 4/SL-8, 27940 is a payload satellite owned by KVR (DE) in SSO that was launched on Sat, 27 Sep 2003 UTC launched from the Plesetsk Missile And Space Complex (PKMTR). Payload-class satellites include a variety of spacecraft equipped with specific instruments for various scientific and technological missions. These include communications satellites like Starlink; space stations such as the ISS; scientific satellites like the Hubble; Earth observation satellites from companies like Planet Labs, Umbra, and HawkEye 360; GPS; miniature CubeSats for education and research; and military/defense satellites.

Loading next visibility...
Identifier
27940, 2003-042B
Orbit
SSO
Country
Flag of DEDE / GER
Related business
Manufacturer
Polyot
Mission
Spacecraft
Bus & Motor
S3, Unknown motor
Mass
1,479 kg wet, 1,434 kg dry
Launch date (UTC)
2003-09-27 (22 years ago)
Launch vehicle
Unknown
Launch site
Plesetsk Missile And Space Complex (PKMTR)
Object type
Payload
Rocket body
Debris
Shape & HBR
Cyl, 2.1 m
Radar Cross Section
10.179 m², Large (>1 m²)

Expand to show TLE details & history
Last TLE update: 16 hours ago

TLE from 16 hours ago
0 RUBIN 4/SL-8
1 27940U 03042B   25353.47184170  .00000524  00000-0  97887-4 0  9995
2 27940  98.3723 161.7822 0012657 198.5279 161.5466 14.69201038188173
Epoch: 2025-12-19T11:19Z
TLE epoch observation values (Epoch: 2025-12-19T11:19:27.122Z)
Latitude
-0.00008°
Longitude
-96.39331°
Altitude
675.069 km
Speed
7.515 km/s
True Right ascension
10h 47m 07s
True Declination
0° 00' 00"
Sunlit
Object was in daylight at epoch
Visualization orbit readout
Latitude
Unknown
Longitude
Unknown
Altitude
Unknown
Speed
Unknown
Apparent Right ascension
Unknown
Apparent Declination
Unknown
Sunlit
N/A
Visualization observer readout
Local Sidereal Time
02:08:20
Azimuth
Unknown
Elevation
Unknown
Doppler factor
Unknown
Orbital elements
Apogee altitude
669.606 km
Perigee altitude
651.788 km
Semi-major axis
7,038.834 km
Eccentricity
0.00127
Inclination
98.3723°
RAAN
161.7822°
Arg. of periapsis
198.5279°
True anomaly
161.59244°
Mean anomaly
161.5466°
Eccentric anomaly
161.56953°
Mean motion
3.67529 °/min
Orbital period
97.95 mins
BSTAR
0.000097887
Loading maneuver chart data...
Computing Atmospheric mass density...
Loading historical data...
Loading historical data...
Loading historical data...
Loading historical data...
Loading historical data...
Loading historical data...
Loading historical data...
Other satellites on launch #42 in the year 2003 (2003-09-27 UTC)

Documentation

Showing up to 5 results
|